SCP
1 0 0 0 0 0 0 0 0 0 0 0 0 0 0 0 0 0 0 0 0 0 0 0 0 0 0 0 0 0 0 0 0 0 0 0 0 0 0 0 0 0 0 0 0 0 0 0 1
0 0 0 0 0 0 0 0 0 0 0 0 0 0 0 0 0 0 0 0 0 0 0 0 0 0 0 0 0 0 0 0 0 0 0 0 0 0 0 0 0 0 0 0 0 0 0 0 0
0 0 0 0 0 0 0 0 0 0 0 0 0 0 0 0 0 0 0 0 0 0 0 0 0 0 0 0 0 0 0 0 0 0 0 0 0 0 0 0 0 0 0 0 0 0 0 0 0
0 0 0 0 0 0 0 0 0 0 0 0 0 0 0 0 0 0 0 0 0 0 0 0 0 0 0 0 0 0 0 0 0 0 0 0 0 0 0 0 0 0 0 0 0 0 0 0 0
0 0 0 0 0 0 0 0 0 0 0 0 0 0 0 0 0 0 0 0 0 0 0 0 0 0 0 0 0 0 0 0 0 0 0 0 0 0 0 0 0 0 0 0 0 0 0 0 0
0 0 0 0 0 0 0 0 0 0 0 0 0 0 0 0 0 0 0 0 0 0 0 0 0 0 0 0 0 0 0 0 0 0 0 0 0 0 0 0 0 0 0 0 0 0 0 0 0
0 0 0 0 0 0 0 0 0 0 0 0 0 0 0 0 0 0 0 0 0 0 0 0 0 0 0 0 0 0 0 0 0 0 0 0 0 0 0 0 0 0 0 0 0 0 0 0 0
0 0 0 0 0 0 0 0 0 0 0 0 0 0 0 0 0 0 0 0 0 0 0 0 0 0 0 0 0 0 0 0 0 0 0 0 0 0 0 0 0 0 0 0 0 0 0 0 0
0 0 0 0 0 0 0 0 0 0 0 0 0 0 0 0 0 0 0 0 0 0 0 0 0 0 0 0 0 0 0 0 0 0 0 0 0 0 0 0 0 0 0 0 0 0 0 0 0
0 0 0 0 0 0 0 0 0 0 0 0 0 0 0 0 0 0 0 0 0 0 0 0 0 0 0 0 0 0 0 0 0 0 0 0 0 0 0 0 0 0 0 0 0 0 0 0 0
0 0 0 0 0 0 0 0 0 0 0 0 0 0 0 1 1 0 0 0 0 0 0 0 0 0 0 0 0 0 0 0 0 0 0 0 0 0 0 0 0 0 0 0 0 0 0 0 0
0 0 0 0 0 0 0 0 0 0 0 0 0 0 1 1 1 0 0 0 0 0 0 0 0 0 0 0 0 0 0 0 0 0 0 0 0 0 0 0 0 0 0 0 0 0 0 0 0
0 0 0 0 0 0 0 0 0 0 0 0 0 0 1 1 1 0 0 0 0 0 0 0 0 0 0 0 0 0 0 0 0 0 0 0 0 0 0 0 0 0 0 0 0 0 0 0 0
0 0 0 0 0 0 0 0 0 0 0 0 0 0 1 1 0 0 0 0 0 0 0 0 0 0 0 0 0 0 0 0 0 0 0 0 0 0 0 0 0 0 0 0 0 0 0 0 0
0 0 0 0 0 0 0 0 0 0 0 0 0 1 1 1 1 0 0 0 0 0 0 1 0 0 0 0 0 0 0 0 0 0 0 0 0 0 0 0 0 0 0 0 0 0 0 0 0
0 0 0 0 0 0 0 0 0 0 0 0 0 0 1 1 1 1 0 0 0 0 0 1 1 0 0 0 0 0 0 0 0 0 0 0 0 0 0 0 0 0 0 0 0 0 0 0 0
0 0 0 0 0 0 0 0 0 0 0 0 0 0 0 1 1 1 1 1 1 1 1 1 1 0 0 0 0 0 0 0 0 0 0 0 0 0 0 0 0 0 0 0 0 0 0 0 0
0 0 0 0 0 0 0 0 0 0 0 0 0 0 0 0 1 1 1 1 1 1 1 1 1 1 1 1 1 1 1 1 1 0 0 0 0 0 0 1 1 0 0 0 0 0 0 0 0
0 0 0 0 0 0 0 0 0 0 0 0 0 0 0 1 1 1 2 2 2 1 1 1 1 1 2 2 2 1 1 1 1 1 0 0 0 0 1 1 1 1 1 0 0 0 0 0 0
0 0 0 0 0 0 0 0 0 0 0 0 0 0 0 1 1 1 2 2 2 2 2 2 2 2 3 4 3 3 2 2 1 1 1 1 0 0 1 1 1 1 1 1 1 1 1 1 0
0 0 0 0 0 0 0 0 0 0 0 0 0 0 0 1 1 1 2 3 3 3 3 2 3 3 5 5 4 4 3 3 2 2 1 1 1 1 1 1 1 1 1 1 1 1 1 1 1
0 0 0 0 0 0 0 0 0 0 0 0 0 0 0 0 1 1 2 3 3 3 3 3 4 5 6 6 5 4 4 3 3 2 2 1 1 1 1 1 1 1 1 1 1 1 1 1 1
0 0 0 0 0 0 0 0 0 0 0 0 0 0 0 0 1 1 2 3 3 3 3 4 5 6 7 6 6 5 4 4 3 3 2 2 1 1 1 1 1 1 1 1 1 1 1 1 1
0 0 0 0 0 0 0 0 0 0 0 0 0 0 0 0 0 1 1 2 3 3 3 4 6 7 7 7 6 5 4 4 4 3 2 2 1 1 1 1 1 1 1 1 1 1 1 1 1
0 0 0 0 0 0 0 0 0 0 0 0 0 0 0 0 1 1 1 2 2 3 3 4 5 7 7 6 5 4 3 3 3 3 3 2 1 1 1 1 1 1 1 1 1 1 1 1 1
0 0 0 0 0 0 0 0 0 0 0 0 0 0 0 0 0 1 1 1 2 3 3 4 5 5 5 3 3 2 2 3 3 3 2 2 1 1 1 1 1 0 0 1 1 1 1 1 1
0 0 0 0 0 0 0 0 0 0 0 0 0 0 0 0 0 0 1 1 1 2 3 3 3 3 2 2 2 2 2 2 2 2 2 2 1 1 1 1 0 0 0 0 0 0 0 0 0
0 0 0 0 0 0 0 0 0 0 0 0 0 0 0 0 0 0 0 0 0 1 1 1 1 1 1 1 1 2 2 2 1 1 1 1 1 1 0 0 0 0 0 0 0 0 0 0 0
0 0 0 0 0 0 0 0 0 0 0 0 0 0 0 0 0 0 0 0 0 0 0 0 0 0 0 0 1 1 1 1 1 1 1 1 0 0 0 0 0 0 0 0 0 0 0 0 0
0 0 0 0 0 0 0 0 0 0 0 0 0 0 0 0 0 0 0 0 0 0 0 0 0 0 0 0 0 1 1 1 0 0 0 0 0 0 0 0 0 0 0 0 0 0 0 0 0
Wind_Speed
4 3 3 4 3 5 10 7 4 5 5 5 5 3 4 5 5 5 7 13 14 16 15 17 15 15 14 14 13 12 11 11 11 11 10 10 9 9 8 8 8 8 7 7 6 6 6 6 6
3 2 4 4 3 8 9 5 5 5 6 6 4 3 3 6 6 8 10 13 15 15 14 15 16 15 14 13 13 12 12 11 11 11 10 9 9 8 8 8 8 8 8 7 7 6 6 6 6
2 3 3 1 4 7 8 4 5 6 4 1 3 3 4 5 6 7 11 15 15 14 13 15 15 14 14 13 13 12 12 11 11 10 9 9 8 8 8 8 8 9 9 9 8 7 7 6 5
3 4 3 3 8 6 3 3 3 6 4 1 2 4 5 5 4 8 14 15 15 14 13 15 14 14 13 13 13 12 12 11 11 10 9 9 8 7 7 8 9 9 9 10 9 9 8 7 6
3 3 3 5 6 4 1 0 2 4 2 2 1 4 6 5 7 12 14 14 14 14 13 15 15 14 13 13 13 12 12 11 11 10 9 8 8 7 7 8 9 9 9 10 9 9 9 8 8
3 3 3 5 6 3 3 2 4 3 2 3 2 3 6 7 9 12 13 12 13 13 13 14 15 13 13 13 13 13 12 12 11 11 10 9 8 7 7 7 8 8 9 9 9 8 8 8 8
3 1 2 4 5 4 3 0 2 2 2 3 2 3 7 8 9 12 12 11 12 13 12 12 14 14 13 12 13 13 13 12 11 11 10 9 8 7 7 7 7 7 8 8 8 8 7 7 7
3 2 4 4 4 4 2 1 0 2 2 3 3 1 5 11 12 12 11 10 11 12 12 12 12 13 13 13 13 13 13 12 12 11 10 10 9 8 7 8 7 7 7 7 7 7 7 6 6
4 4 4 3 2 3 2 1 3 1 4 4 2 3 5 15 15 13 11 10 11 11 11 11 11 10 10 11 12 13 12 11 11 11 11 10 9 9 9 7 7 7 7 7 7 7 5 4 7
3 3 2 2 1 2 2 1 1 4 4 4 5 5 10 15 15 14 13 13 13 13 12 10 10 10 10 8 9 8 9 10 10 9 11 8 6 4 4 11 6 7 7 7 6 5 6 7 6
2 2 2 1 1 2 1 1 1 3 2 2 2 8 14 15 15 14 13 12 12 13 12 10 10 10 9 7 7 6 5 6 8 9 9 6 6 5 5 6 8 8 8 7 7 8 4 3 2
2 1 2 2 2 2 2 2 1 2 6 8 7 6 15 16 15 14 13 12 11 11 12 11 11 10 10 8 7 7 6 6 6 8 10 7 4 5 5 4 5 5 4 3 4 2 4 3 4
3 0 1 3 2 3 4 3 2 5 8 8 4 7 14 15 14 13 11 11 11 11 11 12 11 11 10 8 6 7 7 6 7 6 7 8 6 6 5 5 4 5 4 5 3 4 4 3 2
2 3 3 3 2 2 3 1 1 7 9 7 3 3 10 12 11 11 11 11 11 11 11 11 12 11 10 9 8 7 6 6 6 7 8 9 6 5 5 5 5 5 5 4 4 4 4 3 2
3 5 4 2 2 1 4 2 6 8 8 9 7 3 3 6 8 10 10 10 10 10 11 11 11 11 11 10 9 7 6 7 6 6 9 9 8 7 6 5 6 6 6 6 4 4 3 2 3
5 7 7 2 1 1 6 1 8 9 8 9 9 8 5 4 7 8 9 9 10 10 11 11 9 11 11 10 9 7 7 7 6 7 7 9 9 8 6 5 5 6 6 5 4 4 4 4 4
6 7 6 2 1 2 3 1 7 9 8 8 8 8 7 6 6 7 8 9 10 10 11 12 13 12 12 11 9 8 7 7 6 7 7 9 10 9 7 5 5 7 6 6 5 5 5 5 4
5 6 6 4 1 3 3 1 5 8 8 9 9 9 9 9 9 8 8 9 10 11 12 13 13 13 12 10 9 7 7 7 7 7 7 10 8 9 7 4 5 6 6 5 6 6 5 4 4
6 7 7 4 3 4 4 1 3 6 8 9 10 10 11 11 10 9 8 8 9 12 14 14 14 14 12 9 9 8 8 7 7 7 9 10 9 9 8 5 6 6 6 8 8 6 7 6 6
5 7 6 3 2 5 6 4 3 5 8 9 11 11 12 13 13 11 10 8 8 10 13 15 15 15 14 11 10 8 7 6 6 5 7 10 11 10 8 9 6 7 7 9 9 8 6 6 6
4 5 7 8 6 7 8 9 7 4 4 8 10 11 12 13 14 14 13 11 9 9 11 12 14 14 14 13 8 6 5 4 4 6 6 8 10 9 9 9 8 8 8 8 9 10 10 7 7
7 7 9 10 10 8 7 9 6 2 2 9 12 13 14 14 14 13 14 13 12 10 9 10 11 12 12 12 10 10 5 4 3 3 4 6 8 8 8 8 8 7 6 7 8 9 8 8 7
10 12 13 13 13 13 11 11 4 2 5 11 13 14 14 14 14 14 14 13 12 11 7 4 5 8 10 10 10 8 4 2 1 0 3 4 6 7 8 7 7 7 6 7 7 7 8 7 8
12 13 13 11 10 14 13 12 2 6 9 13 14 15 15 14 14 13 13 12 11 10 6 2 4 7 9 10 9 9 8 5 2 1 2 3 4 5 7 6 6 6 5 6 6 6 8 8 8
12 12 7 7 8 7 2 4 7 8 9 11 14 15 14 13 13 12 13 11 10 9 7 4 6 8 9 11 11 10 9 6 2 1 3 4 4 4 6 6 6 5 5 5 5 6 6 8 8
10 9 7 7 6 3 1 2 7 7 9 11 12 13 14 14 13 12 11 9 8 8 7 6 7 8 9 9 10 10 8 5 1 2 3 4 3 4 6 6 5 5 4 4 4 5 6 6 7
10 8 7 8 9 7 1 5 4 12 14 16 16 16 16 15 13 10 9 8 7 8 8 8 9 9 8 8 8 8 6 4 1 2 4 3 4 3 5 6 5 5 5 5 4 4 5 5 6
8 8 6 5 5 4 0 5 8 17 18 17 17 17 16 14 12 9 8 8 8 8 8 8 8 8 8 7 6 5 5 3 1 3 5 5 6 5 6 6 6 6 5 5 4 3 2 4 5
10 7 6 5 4 4 2 4 7 12 13 14 15 15 15 13 11 9 8 8 8 7 8 8 7 7 6 6 5 4 3 1 3 5 6 5 5 6 6 6 6 6 6 6 4 4 3 4 5
7 7 6 4 4 4 2 3 7 10 11 12 14 15 14 14 12 11 10 9 8 8 7 7 6 5 4 4 3 2 2 4 6 7 6 5 5 5 6 7 6 6 5 5 5 4 4 4 4
Wind_Direction
243 186 201 227 207 94 82 84 85 93 80 73 69 56 40 27 357 47 114 154 145 147 144 149 152 151 149 147 146 145 143 140 138 134 130 126 123 118 113 107 101 97 96 95 94 94 93 94 99
301 204 238 237 126 98 88 87 86 74 100 109 92 68 60 67 52 96 137 150 150 148 149 150 151 153 152 152 151 150 147 143 140 136 132 129 125 121 115 109 101 96 93 92 92 91 89 90 94
222 234 265 158 83 79 90 87 86 107 122 139 100 57 37 60 97 122 140 152 154 150 149 143 154 154 155 155 153 153 150 148 146 143 140 136 131 126 120 112 104 96 89 84 85 88 87 84 89
239 229 229 126 98 80 68 85 122 143 154 134 137 105 83 70 105 123 140 156 155 154 152 147 157 157 159 157 156 156 155 154 154 152 148 142 136 131 127 120 109 100 92 84 79 81 80 76 78
249 257 166 124 106 99 96 42 180 177 144 136 151 96 101 98 111 132 148 158 161 160 156 152 160 161 162 160 160 160 159 158 159 158 152 145 140 137 134 127 116 107 98 88 80 76 73 69 79
247 246 171 135 119 118 126 159 196 209 147 156 171 114 99 125 142 147 153 164 167 164 162 155 161 166 166 165 164 161 161 162 163 161 156 150 145 141 137 129 123 113 103 93 85 78 74 72 81
280 224 152 142 146 141 95 99 208 198 192 175 184 123 122 144 149 154 157 165 167 167 170 166 167 172 172 171 170 167 166 167 167 165 161 157 151 145 138 128 122 119 113 103 94 87 82 76 81
310 214 160 162 168 130 84 168 214 241 125 116 202 214 140 150 154 157 157 163 171 176 177 179 177 174 174 174 175 174 172 171 169 168 166 161 156 154 148 156 133 135 126 114 105 98 92 83 87
281 238 182 156 174 115 72 157 121 165 148 163 188 27 106 142 156 161 162 168 177 185 185 186 183 179 179 175 168 178 177 174 173 173 169 176 181 168 172 130 134 144 134 124 114 107 113 133 122
278 252 98 70 32 64 46 16 122 191 191 181 160 129 140 155 168 173 177 178 181 187 190 190 191 182 182 178 169 183 179 177 188 180 175 191 177 161 143 120 152 147 138 134 121 131 175 217 155
295 318 42 79 28 342 355 31 354 260 253 336 249 173 166 173 181 186 188 187 184 186 188 196 196 190 185 181 176 180 180 183 191 182 178 191 172 164 170 162 164 165 175 167 154 194 180 169 113
284 347 337 14 24 314 325 342 342 348 353 332 302 202 180 187 190 194 194 189 185 189 189 193 200 193 193 191 183 183 183 185 188 189 183 183 185 183 169 185 170 172 184 172 196 196 163 170 168
260 294 31 355 327 314 304 311 337 26 351 333 309 195 192 195 195 196 198 191 191 190 193 194 198 200 194 194 194 194 190 189 189 186 191 187 186 189 170 184 179 197 178 178 198 213 163 181 136
330 305 306 317 314 343 316 349 62 25 359 8 7 205 207 206 206 200 200 200 198 195 197 191 197 200 199 191 198 200 192 193 198 185 200 193 189 192 180 188 184 192 189 186 198 186 172 184 153
274 266 253 267 285 351 283 149 58 19 9 28 22 14 280 235 224 224 216 216 213 205 203 196 199 199 201 202 200 198 197 194 197 193 204 197 193 192 192 190 185 188 189 191 202 169 186 169 159
249 248 246 169 254 293 272 215 51 15 19 29 24 23 0 307 266 249 240 234 229 220 217 204 199 205 201 202 202 199 202 198 198 196 206 205 199 199 191 189 190 193 191 197 190 205 197 185 195
230 255 262 216 164 301 283 65 52 28 29 31 23 17 9 357 330 303 281 261 247 235 227 216 208 208 202 200 202 204 202 199 205 203 203 212 209 206 197 198 192 189 199 206 207 211 215 207 202
282 271 261 260 55 292 267 104 63 42 38 35 25 16 10 1 353 332 313 292 266 247 236 225 213 213 205 197 202 197 205 203 206 207 208 215 218 220 213 201 209 202 207 213 221 215 227 236 220
304 285 278 290 341 289 269 241 79 58 43 31 22 12 6 358 349 344 325 298 276 253 238 230 219 211 206 194 196 194 198 203 206 209 213 215 221 226 228 224 216 214 218 218 222 222 220 226 225
297 285 289 292 322 286 268 247 126 80 52 31 16 7 3 355 350 351 340 322 292 267 248 235 222 215 205 197 195 194 192 200 205 210 215 220 223 223 228 228 225 222 224 224 223 218 223 221 220
309 315 310 299 293 252 262 239 185 134 67 35 18 7 2 357 348 347 344 335 315 288 263 243 230 214 203 193 184 170 162 162 180 206 214 220 225 227 227 230 228 227 224 224 225 219 221 220 217
311 344 308 289 274 260 246 266 186 136 48 20 8 1 356 353 348 345 341 337 329 314 288 255 231 210 191 181 176 170 172 179 195 201 211 213 216 219 220 226 229 227 226 228 227 221 222 221 215
332 318 294 280 270 267 242 255 197 74 5 1 357 353 349 347 344 342 340 337 336 331 316 275 208 177 165 164 162 148 126 109 71 18 236 217 211 214 213 216 219 227 226 230 229 226 226 224 225
325 301 275 253 252 250 243 239 156 37 359 348 347 347 345 343 340 341 340 342 345 348 351 13 132 139 144 142 133 120 111 93 68 312 251 224 207 207 207 204 211 219 224 228 227 227 226 235 235
347 330 288 247 227 243 232 234 77 40 7 349 341 341 342 341 338 340 342 344 351 359 14 50 101 111 117 121 116 108 101 87 61 301 246 228 210 200 194 196 205 208 218 224 224 227 231 231 237
344 337 324 299 291 299 229 129 91 34 8 356 348 345 344 344 341 342 345 352 4 15 27 60 84 96 105 112 112 105 98 90 57 293 255 237 224 202 185 188 192 191 200 209 215 234 230 237 234
340 344 331 294 288 278 223 102 102 10 5 359 354 351 348 344 342 351 1 14 28 32 39 61 73 82 87 94 98 95 91 87 48 291 254 240 218 191 181 179 182 182 188 205 204 228 227 237 240
356 327 311 300 302 283 47 62 10 353 349 346 349 348 343 343 350 2 17 30 44 44 44 49 57 69 76 76 78 78 68 60 349 278 253 229 210 184 183 189 185 181 182 190 202 220 227 235 236
359 351 329 302 296 314 353 56 9 343 342 343 347 349 347 353 3 13 24 29 35 37 40 42 44 46 54 59 57 52 41 330 265 254 246 226 208 190 190 196 202 188 186 187 186 215 204 229 235
14 355 336 338 354 351 347 48 1 351 356 359 357 358 1 8 15 19 22 23 25 22 23 28 30 27 27 36 39 11 285 258 249 243 232 216 208 203 205 193 203 194 198 200 196 200 214 230 245